EUTELSAT 117 WEST A

Last updated on Sun Apr 12 2026 00:02:53 GMT+0000 (Coordinated Universal Time)

1 39122U 13012A 26101.49755061 -.00000011 00000+0 00000+0 0 9992 2 39122 0.0594 66.0569 0002778 312.0701 243.9021 1.00270723 47764
UTC large
Height (km)
Speed (km/s)
/
Latitude / Longitude
Inclination (degrees)
Orbital Period (minutes)
Azimuth
Elevation
Range (km)
Doppler Factor

Next 0 passes for location: London (51.5072 / 0.1276)

Sorry there are no passes over London.
EUTELSAT 117 WEST A